Location: Bailleulval
(50.2215°N, 2.6338°E)
Time: 15:21:03
(UTC+00:00)

Daily predictions for brighter satellites

Satellite Brightness Start Highest point End
(mag) Time Altitude Azimuth Time Altitude Azimuth Time Altitude Azimuth
FENGYUN 3A 4.0 16:19:36 10° S 16:25:02 76° WSW 16:30:30 10° NNW
Cosmos 2278 Rocket 2.9 16:20:02 10° NNW 16:25:05 31° NE 16:30:05 10° ESE
Cosmos 1606 2.8 16:21:44 10° SSW 16:25:30 81° W 16:29:19 10° N
OPS 6432 4.4 16:23:59 10° NW 16:27:04 59° NE 16:30:54 10° SE
SJ-7 4.5 16:25:26 10° SSE 16:29:35 64° ENE 16:33:44 10° N
SMAP 3.4 16:26:40 10° SE 16:31:02 42° ENE 16:35:26 10° N
H-2A R/B 4.2 16:29:11 10° NNW 16:32:17 21° WNW 16:35:21 10° WSW
YAOGAN 1 4.4 16:30:52 10° ENE 16:32:34 12° NE 16:34:15 10° NNE
Meteor 1-11 Rocket 4.4 16:29:32 10° N 16:34:58 35° ENE 16:40:22 10° SE
Cosmos 2360 Rocket 2.2 16:29:35 10° SSW 16:35:15 78° ESE 16:40:57 10° NNE
Tsikada Rocket 4.3 16:29:32 10° SSW 16:35:59 80° W 16:42:25 10° N
Cosmos 1933 4.1 16:32:51 10° SSW 16:36:48 54° WNW 16:40:46 10° N
SeaSat 1 4.3 16:34:51 10° NE 16:36:58 13° NNE 16:39:04 10° N
ALOS 3.1 16:33:12 10° S 16:37:47 57° W 16:42:25 10° NNW
Cosmos 2369 Rocket 4.1 16:38:24 10° N 16:39:32 11° NNE 16:40:39 10° NNE
RESURS DK-1 4.0 16:37:08 10° SSE 16:39:55 18° ESE 16:42:29 11° ENE
Cosmos 304 Rocket 3.8 16:36:31 10° NNW 16:41:17 57° ENE 16:46:01 10° SE
Cosmos 1980 Rocket 4.0 16:37:35 10° W 16:42:04 23° NW 16:46:33 10° NNE
Cosmos 2333 Rocket 2.9 16:37:34 10° S 16:42:43 35° ESE 16:47:55 10° NE
Cosmos 332 Rocket 3.9 16:38:26 10° NNW 16:43:21 84° WSW 16:48:11 10° SSE
Cosmos 1733 Rocket 3.7 16:41:01 10° N 16:45:00 33° ENE 16:48:58 10° SE
USA 215 3.3 16:41:26 10° ENE 16:48:00 84° NNW 16:54:33 10° WSW
CENTAUR R/B 3.7 16:40:23 10° NW 16:48:16 68° SW 16:56:50 10° SSE
ERBS 2.6 16:45:37 10° WNW 16:48:56 68° SW 16:52:15 10° SE
NOSS 2 (A) 4.4 16:48:17 10° NNW 16:50:48 43° NE 16:53:05 10° ESE
Cosmos 1869 Rocket 3.8 16:46:36 10° NNW 16:51:00 77° W 16:55:25 10° S
Radarsat Rocket 4.5 16:46:21 10° S 16:52:35 67° WSW 16:58:26 10° NNW
Envisat 3.4 16:48:43 10° SE 16:53:24 38° ENE 16:58:05 10° N
Cosmos 2237 Rocket 3.6 16:51:36 10° SE 16:55:20 18° E 16:57:53 14° ENE
Feng Yun 1-1 Rocket 4.1 16:52:05 10° SSE 16:57:28 75° ENE 17:02:52 10° NNW
PSLV R/B 3.9 16:54:45 10° NNE 16:58:56 68° ESE 17:03:03 10° S
Cosmos 2322 Rocket 3.2 16:53:50 10° WSW 16:59:10 43° NW 17:04:35 10° NNE
Cosmos 1812 3.8 16:56:43 10° SE 16:59:56 26° E 17:02:32 13° NE
Exosat Rocket 4.5 16:56:00 10° SSE 17:00:32 28° ESE 17:03:51 15° NE
Cosmos 1844 4.3 16:55:11 10° NW 17:00:50 63° WSW 17:06:22 10° SSE
NOSS 2-2 (D) 4.2 16:58:19 10° WSW 17:01:54 44° NW 17:05:50 12° NE
SL-16 R/B 3.5 16:59:21 10° WSW 17:04:34 37° NW 17:09:50 10° NNE
Cosmos 1992 Rocket 4.3 17:01:44 10° NNW 17:06:44 43° ENE 17:11:42 10° SE
Cosmos 1536 3.6 17:04:18 10° N 17:07:55 30° ENE 17:11:29 10° SE
Okean O Rocket 3.4 17:05:52 10° SSW 17:09:49 34° W 17:13:49 10° NNW
CZ-4 R/B 2.2 17:07:41 10° ESE 17:10:58 26° ENE 17:14:14 10° N
Cosmos 2219 Rocket 2.3 17:08:07 10° S 17:13:35 57° ESE 17:18:27 14° NE
Cosmos 1689 Rocket 4.3 17:14:31 10° N 17:17:06 25° WNW 17:19:39 10° SW
Cosmos 1844 Rocket 4.3 17:13:20 10° NW 17:18:27 38° WSW 17:23:33 10° S
CORIOLIS 4.2 17:13:16 10° SSE 17:18:43 90° W 17:24:13 10° NNW
Okean-O 2.5 17:16:00 10° SSE 17:20:24 68° ENE 17:24:50 10° N
NOAA 12 4.0 17:17:05 10° SSE 17:22:23 76° ENE 17:27:41 10° NNW
Cosmos 1862 Rocket 3.8 17:18:37 10° SSE 17:22:45 45° E 17:26:30 13° NNE
Cosmos 1500 3.0 17:20:01 10° N 17:23:48 66° ENE 17:27:31 10° SSE
Cosmos 1980 4.5 17:20:08 10° SSE 17:25:01 31° ESE 17:27:28 22° ENE
Lacrosse 5 rocket 2.5 17:22:01 10° S 17:25:37 27° SE 17:26:52 23° ESE
BREEZE-M DEB (TANK) 2.8 17:19:17 10° W 17:25:38 60° SSW 17:27:30 19° SE
CZ-4B R/B 4.3 17:23:31 10° NNW 17:25:47 16° WNW 17:28:02 10° WSW
AQUARIUS 4.5 17:21:28 10° S 17:25:57 70° WSW 17:30:28 10° NNW
NOSS 3-4 (A) 3.5 17:20:26 10° SW 17:26:30 86° NW 17:31:33 18° NE
Cosmos 2279 Rocket 4.4 17:20:17 10° NNW 17:26:30 68° W 17:32:41 10° S
NOSS 3-4 (C) 3.5 17:20:33 10° SW 17:26:36 86° NW 17:31:39 18° NE
ATLAS 3B R/B 3.7 17:20:46 10° NW 17:27:10 48° WSW 17:33:41 10° SSE
Cosmos 1340 4.5 17:23:45 10° NNW 17:27:12 34° W 17:30:38 10° SSW
ISS -3.7 17:25:07 10° WNW 17:28:29 75° SSW 17:30:12 26° ESE
H-2A R/B 3.2 17:25:04 10° S 17:28:44 60° W 17:32:24 10° NNW
Cosmos 1943 Rocket 3.6 17:30:32 10° N 17:34:24 18° NE 17:34:39 18° NE
COSMOS 2428 2.6 17:29:20 10° SSW 17:35:00 79° ESE 17:39:28 17° NNE
SL-4 R/B 2.3 17:31:54 10° SW 17:35:34 50° SSE 17:36:58 33° E
Meteor 1-5 Rocket 4.3 17:30:02 10° NNW 17:35:41 79° W 17:41:07 10° S
COSMOS 2455 4.1 17:30:23 10° W 17:35:49 34° NW 17:40:50 12° NNE
COBE Rocket 3.7 17:31:35 10° NNE 17:36:15 86° WNW 17:40:54 10° SSW
Ariane Rocket 4.1 17:37:34 23° NE 17:37:34 23° NE 17:40:43 10° N
Cosmos 1707 Rocket 4.2 17:34:35 10° SSW 17:38:59 59° WNW 17:43:26 10° N
CSL-04 Rocket 3.8 17:34:53 10° SE 17:39:55 48° ENE 17:45:00 10° N
Cosmos 1900 4.2 17:39:54 10° NW 17:44:49 67° NE 17:48:10 20° SE
STARLINK-67 2.4 17:42:07 10° WSW 17:44:53 82° NNW 17:44:53 82° NNW
NOSS 7 (A) 4.5 17:42:16 10° SSW 17:45:25 65° SE 17:45:35 63° ESE
FengYun 1-2 T 4.1 17:41:57 10° SSE 17:47:25 78° ENE 17:52:56 10° NNW
Cosmos 1315 Rocket 4.3 17:43:54 10° SW 17:47:36 36° WNW 17:51:21 10° N
YAOGAN 6 2.3 17:44:16 10° SSE 17:47:46 74° ENE 17:51:21 10° N
Nadezhda 4 Rocket 3.9 17:43:29 10° S 17:49:49 78° E 17:56:09 10° NNE
CSL-04 Debris 4.2 17:45:29 10° SSE 17:50:51 59° ENE 17:56:12 10° N
Cosmos 1908 Rocket 3.4 17:50:47 10° N 17:55:12 67° ENE 17:59:34 10° SSE
COSMO-SKYMED 1 2.5 17:53:53 34° NE 17:55:37 61° ESE 17:59:55 10° S
Shenzhou-11 Module 4.2 17:56:39 10° SW 17:58:10 16° S 17:58:10 16° S
STARLINK-46 4.2 17:58:14 10° SW 17:59:57 30° SSW 17:59:57 30° SSW
Genesis I 4.2 17:58:14 10° NNW 18:01:02 33° N 18:01:02 33° N
ATLAS 2AS CENTAUR R/B 3.6 17:56:55 10° WSW 18:04:46 54° NW 18:10:07 21° NE
Cosmos 2251 Rocket 3.4 18:01:14 10° SSW 18:06:33 82° ESE 18:09:04 32° NNE
YAOGAN 1 2.4 18:03:37 10° SSE 18:07:56 79° ENE 18:12:17 10° NNW
Cosmos 1666 2.5 18:04:55 10° N 18:08:42 88° E 18:12:26 10° S
NOAA 11 4.1 18:03:49 10° SSE 18:09:11 63° ENE 18:14:37 10° N
Cosmos 2278 Rocket 2.7 18:03:57 10° NW 18:09:32 59° WSW 18:15:04 10° S
BREEZE-M R/B 2.5 18:05:08 10° W 18:10:05 85° S 18:10:05 85° S
Cosmos 2026 Rocket 3.9 18:06:53 10° SSE 18:12:46 55° E 18:15:47 28° NNE
SeaSat 1 3.0 18:14:08 39° NNE 18:14:08 39° NNE 18:18:04 10° NNW
USA 116 4.4 18:11:46 37° NNE 18:13:50 64° E 18:19:03 10° S
RESURS DK-1 2.8 18:13:28 10° SW 18:17:32 58° NW 18:18:24 47° N
Cosmos 2360 Rocket 4.0 18:15:12 10° W 18:19:54 26° NW 18:23:58 13° N
SL-16 R/B 3.6 18:20:16 10° S 18:22:46 23° SSE 18:22:46 23° SSE
Cosmos 2369 Rocket 3.5 18:20:49 10° NNW 18:23:51 24° NNE 18:23:51 24° NNE
Cosmos 2333 Rocket 3.0 18:21:18 10° SW 18:26:52 48° NW 18:30:14 23° NNE
Meteor 1-27 Rocket 4.3 18:22:28 10° SSW 18:28:06 59° WNW 18:33:54 10° N
USA 215 3.7 18:28:40 39° NE 18:30:44 52° N 18:37:02 10° W
Cosmos 292 Rocket 3.9 18:26:35 10° NNW 18:31:27 72° WSW 18:33:41 32° S
Cosmos 1867 4.1 18:26:12 10° NW 18:30:44 44° NNE 18:30:44 44° NNE
Cosmos 1627 Rocket 4.3 18:27:34 10° S 18:33:41 81° E 18:37:50 22° NNE
Cosmos 2237 Rocket 2.1 18:32:57 10° SSW 18:38:40 85° WNW 18:39:45 61° NNE
SKYMED 2 4.5 18:42:35 37° NNW 18:43:44 47° WNW 18:47:54 10° SW
CZ-4 R/B 3.0 18:42:22 10° SSW 18:45:55 32° W 18:49:27 10° NNW
Cosmos 1092 Rocket 4.5 18:47:10 10° SSW 18:53:25 60° WNW 18:59:38 10° N
Cosmos 2219 Rocket 3.6 18:52:53 10° WSW 18:57:53 32° NW 19:00:10 24° N
NOSS 0 Rocket 4.5 18:57:26 10° SW 19:03:32 55° NW 19:05:07 44° N
Lacrosse 5 rocket 3.2 19:00:22 10° WSW 19:02:32 29° WSW 19:02:32 29° WSW
ISS -0.6 19:02:18 10° W 19:03:08 14° WSW 19:03:08 14° WSW
NOSS 3-1 (C) 4.3 19:00:22 10° NW 19:06:34 48° NNE 19:06:34 48° NNE
Cosmos 2297 4.0 19:03:05 10° NW 19:08:43 63° WSW 19:08:43 63° WSW
Cosmos 1980 4.3 19:03:22 10° SW 19:08:52 52° NW 19:09:20 51° NW
USA 229 DEB 4.3 19:06:50 10° NW 19:12:39 48° N 19:12:39 48° N
USA 229 4.3 19:06:56 10° NW 19:12:44 48° N 19:12:44 48° N
SL-4 R/B 4.4 19:11:11 10° W 19:12:35 21° W 19:12:35 21° W
Cosmos 1943 Rocket 3.7 19:13:39 10° NNW 19:16:11 27° NNW 19:16:11 27° NNW
COSMOS 2428 4.5 19:15:12 10° W 19:19:54 26° NW 19:21:30 23° NNW
ATLAS 2AS CENTAUR R/B 4.2 19:50:29 10° WNW 19:57:31 32° N 19:57:33 32° N
Cosmos 2344 4.3 20:10:37 10° NW 20:18:49 75° NW 20:18:49 75° NW
